LOT3MG LIPE-EPWA

Flight info

Callsign LOT3MG
Flight time N/A
Altitude 24000
Route LUMAV M859 CHI/N0360F180 M859 TULIK P125 ROSKA M859 BARPI/N0454F370 DCT LAPNA DCT GOLVA DCT ABLOM DCT MEBAN DCT ORTEB/N0455F380 DCT KONZI DCT LOGDA
Aircraft B38M/M-SDE1FGHILORVWXY/HB1

Departure

Time 2026-04-30 13:53
Airport Bologna Guglielmo Marconi Airport (LIPE)

Arrival

Time N/A
Airport Warsaw Chopin Airport (EPWA)
Time Latitude Longitude Altitude Speed Heading
2026-04-30 13:21 44.53272 11.28756 133 ft 0 kts 207°
2026-04-30 13:37 44.53272 11.28757 133 ft 0 kts 207°
2026-04-30 13:43 44.53276 11.28760 133 ft 4 kts 208°
2026-04-30 13:44 44.53298 11.28780 133 ft 4 kts 226°
2026-04-30 13:44 44.53311 11.28810 133 ft 4 kts 265°
2026-04-30 13:44 44.53308 11.28835 133 ft 1 kts 297°
2026-04-30 13:44 44.53307 11.28839 133 ft 0 kts 297°
2026-04-30 13:46 44.53306 11.28839 133 ft 0 kts 297°
2026-04-30 13:48 44.53307 11.28836 133 ft 2 kts 297°
2026-04-30 13:49 44.53329 11.28812 133 ft 6 kts 348°
2026-04-30 13:49 44.53375 11.28784 133 ft 9 kts 306°
2026-04-30 13:49 44.53408 11.28697 132 ft 11 kts 297°
2026-04-30 13:49 44.53447 11.28588 132 ft 14 kts 296°
2026-04-30 13:50 44.53493 11.28460 133 ft 16 kts 297°
2026-04-30 13:50 44.53629 11.28083 133 ft 26 kts 296°
2026-04-30 13:50 44.53712 11.27851 133 ft 27 kts 297°
2026-04-30 13:51 44.53797 11.27618 133 ft 26 kts 296°
2026-04-30 13:51 44.53871 11.27412 133 ft 21 kts 297°
2026-04-30 13:51 44.53966 11.27278 133 ft 14 kts 327°
2026-04-30 13:51 44.54041 11.27216 132 ft 13 kts 343°
2026-04-30 13:52 44.54113 11.27282 132 ft 12 kts 78°
2026-04-30 13:52 44.54088 11.27358 132 ft 2 kts 117°
2026-04-30 13:52 44.54040 11.27491 131 ft 50 kts 116°
2026-04-30 13:53 44.53767 11.28245 131 ft 121 kts 117°
2026-04-30 13:53 44.53288 11.29535 282 ft 162 kts 116°
2026-04-30 13:53 44.52771 11.30900 1299 ft 152 kts 114°
2026-04-30 13:53 44.52529 11.32353 1917 ft 159 kts 83°
2026-04-30 13:54 44.52934 11.33773 2647 ft 162 kts 54°
2026-04-30 13:54 44.53844 11.34718 3390 ft 167 kts 25°
2026-04-30 13:54 44.55098 11.34938 3815 ft 194 kts 360°
2026-04-30 13:54 44.56473 11.35068 4347 ft 201 kts 24°
2026-04-30 13:55 44.57686 11.35952 5242 ft 199 kts 31°
2026-04-30 13:55 44.58902 11.36927 5979 ft 200 kts 31°
2026-04-30 13:55 44.60096 11.37919 6868 ft 201 kts 32°
2026-04-30 13:55 44.61308 11.38949 7595 ft 205 kts 32°
2026-04-30 13:56 44.62530 11.40010 8331 ft 208 kts 33°
2026-04-30 13:56 44.63764 11.41094 9092 ft 212 kts 33°
2026-04-30 13:56 44.65006 11.42276 9698 ft 222 kts 40°
2026-04-30 13:56 44.66250 11.43736 10084 ft 243 kts 40°
2026-04-30 13:57 44.67598 11.45328 10461 ft 263 kts 41°
2026-04-30 13:57 44.69058 11.47044 10809 ft 284 kts 40°
2026-04-30 13:57 44.70766 11.49053 11161 ft 305 kts 40°
2026-04-30 13:57 44.72332 11.50895 11582 ft 318 kts 40°
2026-04-30 13:58 44.74046 11.52911 12324 ft 322 kts 39°
2026-04-30 13:58 44.77528 11.57013 13824 ft 331 kts 39°
2026-04-30 13:58 44.79303 11.59109 14515 ft 336 kts 38°
2026-04-30 13:59 44.81068 11.61303 15171 ft 341 kts 46°
2026-04-30 13:59 44.82367 11.64123 15878 ft 346 kts 59°
2026-04-30 13:59 44.83551 11.67100 16481 ft 351 kts 58°
2026-04-30 13:59 44.84750 11.70127 17120 ft 355 kts 58°
2026-04-30 14:00 44.85951 11.73188 17757 ft 359 kts 58°
2026-04-30 14:00 44.88381 11.79420 18935 ft 366 kts 58°
2026-04-30 14:00 44.89607 11.82576 19490 ft 369 kts 58°
2026-04-30 14:01 44.90844 11.85764 20033 ft 371 kts 58°
2026-04-30 14:01 44.92086 11.88968 20562 ft 374 kts 58°
2026-04-30 14:01 44.93333 11.92200 21090 ft 376 kts 58°
2026-04-30 14:01 44.94588 11.95455 21616 ft 379 kts 58°
2026-04-30 14:02 44.95851 11.98736 22127 ft 382 kts 58°
2026-04-30 14:02 44.97123 12.02042 22653 ft 385 kts 58°
2026-04-30 14:02 44.98404 12.05376 23189 ft 387 kts 58°
2026-04-30 14:02 44.99691 12.08731 23714 ft 390 kts 58°
2026-04-30 14:03 45.00988 12.12117 24190 ft 393 kts 58°
2026-04-30 14:03 45.02294 12.15527 24623 ft 396 kts 58°
2026-04-30 14:03 45.03609 12.18969 25077 ft 399 kts 58°
2026-04-30 14:03 45.04933 12.22435 25528 ft 402 kts 58°
2026-04-30 14:04 45.06265 12.25927 25977 ft 405 kts 58°
2026-04-30 14:04 45.07670 12.29380 26414 ft 406 kts 54°
2026-04-30 14:04 45.09132 12.32809 26829 ft 409 kts 55°
2026-04-30 14:04 45.10596 12.36275 27258 ft 412 kts 55°
2026-04-30 14:05 45.12049 12.39728 27671 ft 415 kts 55°
2026-04-30 14:05 45.13526 12.43247 28077 ft 417 kts 55°
2026-04-30 14:05 45.15012 12.46793 28474 ft 420 kts 55°
2026-04-30 14:05 45.16508 12.50369 28876 ft 423 kts 55°
2026-04-30 14:06 45.18013 12.53970 29263 ft 425 kts 55°
2026-04-30 14:06 45.21044 12.61236 30010 ft 431 kts 55°
2026-04-30 14:07 45.24106 12.68595 30685 ft 435 kts 56°
2026-04-30 14:07 45.25644 12.72300 30990 ft 437 kts 56°
2026-04-30 14:07 45.27191 12.76030 31301 ft 439 kts 56°
2026-04-30 14:08 45.30318 12.83534 31911 ft 443 kts 56°
2026-04-30 14:08 45.31894 12.87308 32203 ft 445 kts 55°
2026-04-30 14:08 45.35067 12.94917 32773 ft 450 kts 56°
2026-04-30 14:09 45.36661 12.98751 33076 ft 451 kts 56°
2026-04-30 14:09 45.38255 13.02588 33465 ft 451 kts 56°
2026-04-30 14:09 45.41432 13.10251 34284 ft 448 kts 56°
2026-04-30 14:10 45.43014 13.14075 34611 ft 448 kts 56°
2026-04-30 14:10 45.44590 13.17889 34916 ft 448 kts 56°
2026-04-30 14:10 45.46167 13.21711 35215 ft 447 kts 56°
2026-04-30 14:10 45.47743 13.25535 35509 ft 447 kts 56°
2026-04-30 14:11 45.49310 13.29365 35790 ft 448 kts 56°
2026-04-30 14:11 45.50875 13.33203 36065 ft 448 kts 56°
2026-04-30 14:11 45.52441 13.37045 36327 ft 448 kts 56°
2026-04-30 14:11 45.54004 13.40889 36589 ft 448 kts 56°
2026-04-30 14:12 45.55556 13.44748 36845 ft 449 kts 56°
2026-04-30 14:12 45.57105 13.48606 37086 ft 449 kts 56°
2026-04-30 14:12 45.58709 13.52436 37238 ft 447 kts 51°
2026-04-30 14:13 45.62341 13.59606 37270 ft 445 kts 51°
2026-04-30 14:13 45.65902 13.66841 37265 ft 445 kts 51°
2026-04-30 14:14 45.69443 13.74090 37277 ft 445 kts 51°
2026-04-30 14:14 45.72980 13.81351 37274 ft 444 kts 51°
2026-04-30 14:15 45.76529 13.88656 37272 ft 444 kts 51°
2026-04-30 14:15 45.80025 13.95872 37276 ft 444 kts 52°
2026-04-30 14:16 45.83540 14.03143 37281 ft 443 kts 52°
2026-04-30 14:16 45.87006 14.10332 37273 ft 443 kts 52°
2026-04-30 14:17 45.90511 14.17622 37297 ft 444 kts 52°
2026-04-30 14:17 45.94007 14.24911 37299 ft 443 kts 52°
2026-04-30 14:18 45.97496 14.32205 37308 ft 443 kts 52°
2026-04-30 14:18 46.02704 14.43128 36974 ft 433 kts 52°
2026-04-30 14:19 46.06109 14.50290 37321 ft 435 kts 52°
2026-04-30 14:19 46.07824 14.53904 37322 ft 440 kts 52°
2026-04-30 14:20 46.11288 14.61222 37320 ft 442 kts 52°
2026-04-30 14:20 46.16472 14.72205 37320 ft 441 kts 53°
2026-04-30 14:21 46.19918 14.79533 37310 ft 441 kts 53°
2026-04-30 14:22 46.25070 14.90519 37321 ft 440 kts 53°
2026-04-30 14:22 46.30213 15.01532 37334 ft 441 kts 53°
2026-04-30 14:23 46.37052 15.16242 37330 ft 440 kts 53°
2026-04-30 14:24 46.42160 15.27281 37336 ft 440 kts 53°
2026-04-30 14:25 46.48959 15.42031 37346 ft 439 kts 53°
2026-04-30 14:26 46.54562 15.52355 37338 ft 429 kts 32°
2026-04-30 14:27 46.62387 15.58713 37350 ft 430 kts 26°
2026-04-30 14:27 46.67680 15.62791 37351 ft 430 kts 26°
2026-04-30 14:28 46.74437 15.68902 37356 ft 431 kts 33°
2026-04-30 14:28 46.79341 15.73913 37355 ft 430 kts 33°
2026-04-30 14:29 46.89121 15.83977 37352 ft 429 kts 33°
2026-04-30 14:31 47.01300 15.96576 37360 ft 428 kts 34°
2026-04-30 14:31 47.08582 16.04143 37366 ft 427 kts 33°
2026-04-30 14:32 47.15843 16.11714 37368 ft 427 kts 33°
2026-04-30 14:33 47.20681 16.16774 37366 ft 426 kts 34°
2026-04-30 14:33 47.27918 16.24363 37376 ft 426 kts 34°
2026-04-30 14:34 47.32738 16.29433 37375 ft 426 kts 34°
2026-04-30 14:34 47.37552 16.34507 37382 ft 425 kts 34°
2026-04-30 14:35 47.44760 16.42127 37382 ft 424 kts 34°
2026-04-30 14:36 47.49563 16.47219 37386 ft 425 kts 34°
2026-04-30 14:36 47.54361 16.52317 37380 ft 424 kts 34°
2026-04-30 14:37 47.59151 16.57419 37386 ft 424 kts 34°
2026-04-30 14:37 47.63933 16.62524 37384 ft 424 kts 34°
2026-04-30 14:38 47.68687 16.67610 37390 ft 423 kts 34°
2026-04-30 14:38 47.73460 16.72729 37389 ft 423 kts 34°
2026-04-30 14:39 47.78231 16.77857 37388 ft 423 kts 34°
2026-04-30 14:39 47.82993 16.82988 37380 ft 423 kts 34°
2026-04-30 14:40 47.90132 16.90702 37380 ft 422 kts 34°
2026-04-30 14:40 47.94909 16.95878 37377 ft 422 kts 34°
2026-04-30 14:41 47.99657 17.01033 37376 ft 421 kts 34°
2026-04-30 14:41 48.04391 17.06183 37375 ft 421 kts 34°
2026-04-30 14:42 48.08628 17.12170 37384 ft 423 kts 47°
2026-04-30 14:42 48.12466 17.18847 37380 ft 424 kts 47°
2026-04-30 14:43 48.16281 17.25574 37375 ft 423 kts 47°
2026-04-30 14:43 48.20082 17.32308 37378 ft 423 kts 47°
2026-04-30 14:44 48.23881 17.39057 37369 ft 423 kts 47°
2026-04-30 14:44 48.27675 17.45814 37372 ft 423 kts 47°
2026-04-30 14:45 48.31466 17.52582 37369 ft 423 kts 47°
2026-04-30 14:45 48.35259 17.59372 37362 ft 423 kts 47°
2026-04-30 14:46 48.39025 17.66130 37355 ft 423 kts 47°
2026-04-30 14:46 48.42799 17.72921 37353 ft 423 kts 47°
2026-04-30 14:47 48.46568 17.79718 37351 ft 423 kts 47°
2026-04-30 14:47 48.50330 17.86521 37352 ft 423 kts 48°
2026-04-30 14:48 48.54091 17.93340 37347 ft 423 kts 48°
2026-04-30 14:48 48.57846 18.00165 37348 ft 422 kts 48°
2026-04-30 14:49 48.61596 18.06997 37353 ft 423 kts 48°
2026-04-30 14:49 48.65339 18.13835 37348 ft 422 kts 48°
2026-04-30 14:50 48.70950 18.24119 37349 ft 423 kts 48°
2026-04-30 14:51 48.76555 18.34432 37354 ft 423 kts 48°
2026-04-30 14:52 48.82153 18.44772 37355 ft 423 kts 48°
2026-04-30 14:52 48.87743 18.55136 37367 ft 424 kts 48°
2026-04-30 14:53 48.93329 18.65535 37355 ft 424 kts 48°
2026-04-30 14:54 49.00773 18.79454 37361 ft 424 kts 48°
2026-04-30 14:55 49.06346 18.89924 37356 ft 424 kts 49°
2026-04-30 14:56 49.13764 19.03923 37354 ft 424 kts 49°
2026-04-30 14:57 49.19315 19.14448 37347 ft 424 kts 49°
2026-04-30 14:58 49.26705 19.28525 37350 ft 424 kts 49°
2026-04-30 14:58 49.32233 19.39104 37349 ft 424 kts 49°
2026-04-30 15:00 49.41433 19.56791 37347 ft 424 kts 49°
2026-04-30 15:01 49.49363 19.70059 37349 ft 422 kts 41°
2026-04-30 15:01 49.55851 19.79195 37356 ft 421 kts 41°
2026-04-30 15:02 49.60175 19.85290 37349 ft 421 kts 41°
2026-04-30 15:03 49.70825 20.00367 37355 ft 420 kts 41°
2026-04-30 15:04 49.81569 20.15674 37354 ft 420 kts 41°
2026-04-30 15:06 49.92288 20.31040 37355 ft 420 kts 41°
2026-04-30 15:07 50.00847 20.43382 37354 ft 420 kts 41°
2026-04-30 15:08 50.08776 20.54495 37344 ft 417 kts 31°
2026-04-30 15:08 50.17170 20.57519 37355 ft 420 kts
2026-04-30 15:09 50.22988 20.58246 37354 ft 420 kts
2026-04-30 15:10 50.34630 20.59486 37354 ft 419 kts
2026-04-30 15:11 50.46247 20.60697 35601 ft 418 kts
2026-04-30 15:11 50.52060 20.61304 34194 ft 417 kts
2026-04-30 15:12 50.60686 20.62203 32077 ft 409 kts
2026-04-30 15:13 50.66270 20.62788 31099 ft 397 kts
2026-04-30 15:14 50.77043 20.63918 28880 ft 378 kts
2026-04-30 15:14 50.84758 20.64731 27399 ft 363 kts
2026-04-30 15:16 50.97041 20.66032 25044 ft 348 kts
2026-04-30 15:17 51.06584 20.67047 23157 ft 339 kts
2026-04-30 15:18 51.18152 20.68283 20724 ft 332 kts
2026-04-30 15:19 51.25020 20.69020 19420 ft 327 kts